Weather History for Doha International Airport, Qatar

Change the Weather History Date:

Thursday, April 25, 2013

  Actual Average Record
Temperature  
Mean Temperature 82 °F -  
Max Temperature 87 °F 99 °F - ()
Min Temperature 77 °F 76 °F - ()
Cooling Degree Days 17    
Growing Degree Days 32 (Base 50)    
Moisture  
Dew Point 47 °F    
Average Humidity 30    
Maximum Humidity 48    
Minimum Humidity 16    
Precipitation  
Precipitation 0.00 in 0.01 in - ()
Sea Level Pressure  
Sea Level Pressure 29.96 in    
Wind  
Wind Speed 9 mph ()    
Max Wind Speed 20 mph    
Max Gust Speed -    
Visibility 8.0 miles    
Events Rain    
T = Trace of Precipitation, MM = Missing Value Source: Averaged Metar Reports

Daily Weather History Graph

Daily Weather History Graph

Search for Another Location

Airport:

Trip Planner

Search our weather history database for the weather conditions in past years. The results will help you decide how hot, cold, wet, or windy it might be!

Date:

Astronomy

Apr. 25, 2013 Rise Set
Actual Time 5:02 AM AST 6:01 PM AST
Civil Twilight 4:38 AM AST 6:25 PM AST
Nautical Twilight 4:10 AM AST 6:53 PM AST
Astronomical Twilight 3:41 AM AST 7:22 PM AST
Moon 5:46 PM AST (4/25) 4:26 AM AST (4/25)
Length of Visible Light 13h 46m
Length of Day
12h 58m
Full, 100% of the Moon is Illuminated
Apr 25
Full
Apr 25
Full
May 2
Last Quarter
May 10
New
May 18
First Quarter

Hourly Weather History & Observations

Time (AST) Temp. Heat Index Dew Point Humidity Pressure Visibility Wind Dir Wind Speed Gust Speed Precip Events Conditions
12:00 AM 80.6 °F - 46.4 °F 30% 29.95 in - NW 4.6 mph - N/A   Clear
12:30 AM 80.6 °F - 46.4 °F 30% 29.95 in - WNW 4.6 mph - N/A   Clear
1:00 AM 80.6 °F - 42.8 °F 26% 29.95 in - WNW 6.9 mph - N/A   Clear
1:30 AM 80.6 °F - 44.6 °F 28% 29.95 in - WNW 6.9 mph - N/A   Clear
2:00 AM 80.6 °F - 46.4 °F 30% 29.92 in - WNW 4.6 mph - N/A   Clear
2:30 AM 78.8 °F - 44.6 °F 30% 29.95 in - NW 5.8 mph - N/A   Clear
3:00 AM 79 °F - 45 °F 20% 29.94 in 9 mi WNW 5.8 mph - -   Scattered Clouds
3:00 AM 78.8 °F - 44.6 °F 30% 29.92 in - WNW 5.8 mph - N/A   Clear
3:30 AM 78.8 °F - 46.4 °F 32% 29.95 in - NW 4.6 mph - N/A   Clear
4:00 AM 78.8 °F - 46.4 °F 32% 29.95 in - NW 6.9 mph - N/A   Clear
4:30 AM 77.0 °F - 44.6 °F 32% 29.95 in - NW 6.9 mph - N/A   Clear
5:00 AM 78.8 °F - 41.0 °F 26% 29.95 in - NNW 11.5 mph - N/A   Clear
6:00 AM 77.0 °F - 46.4 °F 34% 29.98 in - NNW 10.4 mph - N/A   Clear
6:30 AM 78.8 °F - 48.2 °F 34% 29.98 in - North 11.5 mph - N/A   Clear
7:00 AM 80.6 °F - 48.2 °F 32% 29.98 in - NNW 11.5 mph - N/A   Clear
7:30 AM 82.4 °F - 48.2 °F 30% 30.01 in - North 12.7 mph - N/A   Clear
8:00 AM 84.2 °F - 46.4 °F 27% 30.01 in - North 17.3 mph - N/A   Clear
9:00 AM 85 °F - 46 °F 16% 30.01 in 9 mi North 16.1 mph - -   Scattered Clouds
9:00 AM 84.2 °F - 46.4 °F 27% 30.01 in - North 16.1 mph - N/A   Clear
9:30 AM 86.0 °F - 46.4 °F 25% 30.01 in - North 17.3 mph - N/A   Clear
10:00 AM 86.0 °F - 48.2 °F 27% 30.01 in - NNW 15.0 mph - N/A   Clear
11:00 AM 86.0 °F - 48.2 °F 27% 29.98 in - NNE 19.6 mph - N/A   Clear
12:00 PM 86.0 °F - 44.6 °F 23% 29.98 in - NNE 17.3 mph - N/A   Clear
1:00 PM 86.0 °F - 48.2 °F 27% 29.95 in - NNE 17.3 mph - N/A   Clear
1:30 PM 86.0 °F - 50.0 °F 29% 29.95 in - NNE 18.4 mph - N/A   Clear
2:00 PM 84.2 °F 83.0 °F 55.4 °F 37% 29.95 in - NNE 13.8 mph - N/A   Clear
2:30 PM 84.2 °F - 48.2 °F 29% 29.92 in - NNE 18.4 mph - N/A   Clear
3:00 PM 83 °F - 48 °F 19% 29.94 in 9 mi NNE 19.6 mph - -   Scattered Clouds
3:00 PM 84.2 °F - 48.2 °F 29% 29.92 in - NNE 19.6 mph - N/A   Clear
3:30 PM 82.4 °F 82.0 °F 57.2 °F 42% 29.92 in - NNE 12.7 mph - N/A   Clear
4:00 PM 80.6 °F 81.1 °F 59.0 °F 48% 29.92 in - NNE 12.7 mph - N/A   Clear
4:30 PM 80.6 °F 80.3 °F 53.6 °F 39% 29.92 in - NE 12.7 mph - N/A   Clear
5:00 PM 80.6 °F 80.3 °F 53.6 °F 39% 29.92 in - NE 11.5 mph - N/A   Clear
5:30 PM 80.6 °F 80.3 °F 53.6 °F 39% 29.95 in - NE 10.4 mph - N/A   Clear
6:00 PM 80.6 °F 80.3 °F 53.6 °F 39% 29.95 in - NNE 11.5 mph - N/A   Clear
6:30 PM 80.6 °F 80.5 °F 55.4 °F 42% 29.95 in - NNE 10.4 mph - N/A   Clear
7:00 PM 82.4 °F - 42.8 °F 25% 29.95 in - North 9.2 mph - N/A   Clear
7:30 PM 82.4 °F - 42.8 °F 25% 29.98 in 6.2 mi North 12.7 mph - N/A Rain Light Rain
8:00 PM 82.4 °F - 42.8 °F 25% 29.98 in - NNW 10.4 mph - N/A   Clear
8:30 PM 82.4 °F - 42.8 °F 25% 29.98 in - NNW 8.1 mph - N/A   Clear
9:00 PM 82 °F - 44 °F 17% 29.99 in 7 mi North 5.8 mph - -   Partly Cloudy
9:00 PM 82.4 °F - 44.6 °F 26% 29.98 in - North 5.8 mph - N/A   Clear
9:30 PM 80.6 °F - 48.2 °F 32% 29.98 in - NNE 4.6 mph - N/A   Clear
10:00 PM 80.6 °F - 50.0 °F 34% 29.98 in - North 5.8 mph - N/A   Clear
10:30 PM 80.6 °F - 46.4 °F 30% 29.95 in - North 8.1 mph - N/A   Clear
11:00 PM 80.6 °F - 39.2 °F 23% 29.95 in - NNW 11.5 mph - N/A   Clear
11:30 PM 80.6 °F - 42.8 °F 26% 29.92 in - North 9.2 mph - N/A   Clear